Location: Gez
(43.0167°N, 0.1000°W)
Time: 16:23:33
(UTC+00:00)

Cosmos 44 - Visible Passes

Search period start: 18 January 2026 00:00
Search period end: 28 January 2026 00:00
Orbit: 572 x 778 km, 65.1° (Epoch: 17 January)

Date Brightness Start Highest point End Pass type
(mag) Time Alt. Az. Time Alt. Az. Time Alt. Az.
18 Jan 5.6 04:08:33 21° NE 04:08:33 21° NE 04:12:38 10° E visible
18 Jan 3.4 05:46:52 23° NW 05:50:17 80° WSW 05:55:39 10° SSE visible
19 Jan 4.4 04:43:27 40° NNE 04:44:23 44° NE 04:49:31 10° ESE visible
19 Jan 4.4 06:21:47 15° WNW 06:25:22 31° WSW 06:30:01 10° S visible
20 Jan 6.0 03:40:09 18° ENE 03:40:09 18° ENE 03:42:13 10° E visible
20 Jan 3.4 05:18:29 51° NW 05:19:50 79° WSW 05:25:12 10° SSE visible
20 Jan 5.4 06:58:37 10° W 07:00:06 11° WSW 07:01:35 10° WSW visible
21 Jan 4.8 04:15:18 37° E 04:15:18 37° E 04:19:05 10° ESE visible
21 Jan 4.3 05:53:39 27° W 05:54:55 30° WSW 05:59:33 10° S visible
22 Jan 3.9 04:50:33 55° SSE 04:50:33 55° SSE 04:54:45 10° SSE visible
22 Jan 5.4 06:28:54 11° W 06:29:39 11° WSW 06:30:59 10° WSW visible
22 Jan 4.7 19:05:12 10° S 19:07:14 23° SSE 19:07:14 23° SSE visible
23 Jan 6.0 03:47:33 16° ESE 03:47:33 16° ESE 03:48:39 10° ESE visible
23 Jan 4.7 05:25:55 26° SW 05:25:55 26° SW 05:29:05 10° S visible
23 Jan 5.1 18:02:22 10° SE 18:04:15 12° ESE 18:04:22 12° ESE visible
23 Jan 4.3 19:39:50 10° SW 19:42:44 39° SW 19:42:44 39° SW visible
24 Jan 5.6 04:23:01 18° SSE 04:23:01 18° SSE 04:24:18 10° SSE visible
24 Jan 3.8 18:34:43 10° S 18:38:57 36° ESE 18:39:47 33° E visible
24 Jan 5.4 20:15:46 10° WSW 20:18:09 24° W 20:18:09 24° W visible
25 Jan 5.9 04:58:34 10° S 04:58:34 10° S 04:58:36 10° S visible
25 Jan 5.1 17:31:49 10° SE 17:33:46 13° ESE 17:35:48 10° E visible
25 Jan 3.2 19:09:23 10° SW 19:14:04 81° WNW 19:15:07 55° NNE visible
25 Jan 6.3 20:52:58 10° WNW 20:53:28 12° WNW 20:53:28 12° WNW visible
26 Jan 3.9 18:04:14 10° S 18:08:30 36° ESE 18:11:59 15° NE visible
26 Jan 4.7 19:45:19 10° WSW 19:49:38 33° NW 19:50:20 31° NNW visible
27 Jan 3.3 18:38:55 10° SW 18:43:37 80° NW 18:47:06 20° NNE visible
27 Jan 5.8 20:22:33 10° WNW 20:25:26 16° NW 20:25:26 16° NW visible
